Waterloo, IA

9:52 AM CDT on August 23, 2017 (GMT -0500)
Waterloo Municipal

Weather History for KALO - March, 2013

Change the Weather History Date:

Saturday, March 23, 2013

  Actual Average Record
Temperature  
Mean Temperature 30 °F 39 °F  
Max Temperature 39 °F 49 °F 83 °F (1939)
Min Temperature 21 °F 29 °F 0 °F (1965)
Degree Days  
Heating Degree Days 35 26  
Month to date heating degree days 941 712  
Since 1 July heating degree days 6151 6131  
Cooling Degree Days 0 0  
Month to date cooling degree days 0 0  
Year to date cooling degree days 0 0  
Moisture  
Dew Point 20 °F    
Average Humidity 66    
Maximum Humidity 88    
Minimum Humidity 44    
Precipitation  
Precipitation 0.00 in 0.07 in 1.12 in (1979)
Month to date precipitation 2.45 1.41  
Year to date precipitation 5.53 3.23  
Snow  
Snow 0.00 in 0.20 in 6.00 in (1903)
Month to date snowfall 10.0 3.7  
Since 1 July snowfall 47.1 32.6  
Snow Depth T in    
Sea Level Pressure  
Sea Level Pressure 30.11 in    
Wind  
Wind Speed 7 mph (North)    
Max Wind Speed 13 mph    
Max Gust Speed 16 mph    
Visibility 10 miles    
Events      
T = Trace of Precipitation, MM = Missing Value Source: NWS Daily Summary

Daily Weather History Graph

Daily Weather History Graph

Search for Another Location

Airport or City:

Trip Planner

Search our weather history database for the weather conditions in past years. The results will help you decide how hot, cold, wet, or windy it might be!

Date:

Astronomy

Mar. 23, 2013 Rise Set
Actual Time 7:07 AM CDT 7:25 PM CDT
Civil Twilight 6:39 AM CDT 7:53 PM CDT
Nautical Twilight 6:05 AM CDT 8:27 PM CDT
Astronomical Twilight 5:32 AM CDT 9:01 PM CDT
Moon 3:49 PM CDT 4:48 AM CDT
Length of Visible Light 13h 14m
Length of Day
12h 18m
Waxing Gibbous, 85% of the Moon is Illuminated
Mar 23
Waxing Gibbous
Mar 27
Full
Apr 2
Last Quarter
Apr 10
New
Apr 18
First Quarter

Hourly Weather History & Observations

Time (CDT) Temp. Windchill Dew Point Humidity Pressure Visibility Wind Dir Wind Speed Gust Speed Precip Events Conditions
12:54 AM 27.0 °F 23.0 °F 19.0 °F 72% 30.10 in 10.0 mi NNE 3.5 mph - N/A   Overcast
1:54 AM 25.0 °F 20.7 °F 19.9 °F 81% 30.11 in 10.0 mi NNW 3.5 mph - N/A   Clear
2:54 AM 24.1 °F - 19.0 °F 81% 30.09 in 10.0 mi Calm Calm - N/A   Clear
3:54 AM 23.0 °F 15.8 °F 19.9 °F 88% 30.10 in 10.0 mi West 5.8 mph - N/A   Clear
4:54 AM 24.1 °F 19.7 °F 19.0 °F 81% 30.13 in 10.0 mi NW 3.5 mph - N/A   Overcast
5:54 AM 24.1 °F 18.2 °F 19.9 °F 84% 30.12 in 10.0 mi NNW 4.6 mph - N/A   Scattered Clouds
6:54 AM 23.0 °F 12.4 °F 18.0 °F 81% 30.12 in 10.0 mi North 10.4 mph - N/A   Clear
8:54 AM 28.0 °F 21.7 °F 19.0 °F 69% 30.14 in 10.0 mi NNE 5.8 mph - N/A   Clear
9:54 AM 30.9 °F 26.2 °F 19.0 °F 61% 30.16 in 10.0 mi NNE 4.6 mph - N/A   Clear
10:54 AM 33.1 °F 28.7 °F 19.0 °F 56% 30.16 in 10.0 mi NNE 4.6 mph - N/A   Clear
11:54 AM 35.1 °F 27.4 °F 19.0 °F 52% 30.14 in 10.0 mi NE 10.4 mph - N/A   Clear
12:54 PM 37.0 °F 32.4 °F 19.0 °F 48% 30.14 in 10.0 mi North 5.8 mph - N/A   Clear
1:54 PM 37.9 °F 33.5 °F 18.0 °F 45% 30.14 in 10.0 mi North 5.8 mph - N/A   Clear
2:54 PM 37.9 °F 31.5 °F 19.0 °F 47% 30.10 in 10.0 mi NNE 9.2 mph - N/A   Clear
3:54 PM 37.9 °F 32.7 °F 19.9 °F 48% 30.08 in 10.0 mi ENE 6.9 mph - N/A   Clear
4:54 PM 37.0 °F 30.4 °F 19.9 °F 50% 30.06 in 10.0 mi NNE 9.2 mph - N/A   Clear
5:54 PM 35.1 °F 27.9 °F 21.0 °F 57% 30.06 in 10.0 mi North 9.2 mph - N/A   Clear
6:54 PM 34.0 °F 28.8 °F 23.0 °F 64% 30.07 in 10.0 mi North 5.8 mph - N/A   Scattered Clouds
7:54 PM 33.1 °F 25.5 °F 21.9 °F 64% 30.08 in 10.0 mi North 9.2 mph - N/A   Overcast
8:54 PM 32.0 °F 23.6 °F 23.0 °F 69% 30.08 in 10.0 mi North 10.4 mph - N/A   Overcast
9:54 PM 32.0 °F 24.8 °F 23.0 °F 69% 30.10 in 10.0 mi NNW 8.1 mph - N/A   Overcast
10:54 PM 32.0 °F 23.6 °F 23.0 °F 69% 30.09 in 10.0 mi NNW 10.4 mph - N/A   Overcast
11:54 PM 30.9 °F 24.3 °F 24.1 °F 76% 30.07 in 10.0 mi NNW 6.9 mph - N/A   Overcast